Wetbulb
66.25 67.01 67.43 68.73 69.33 71.51 71.02 70.42 70.63 73.33 73.69 73.30 71.88 70.68 70.03 70.90 72.09 72.36 73.69 75.53 75.82 74.61 75.73 74.61 74.55 73.37 72.51 72.67 71.18 70.36 71.23 71.39 69.71 67.27 68.17 67.25 69.68 68.37 69.36 71.07 69.54 70.80 72.75
66.07 66.20 66.66 67.89 68.44 70.26 70.56 69.95 71.29 73.28 72.81 73.01 71.42 70.33 71.11 71.05 71.87 72.41 73.87 76.83 75.25 76.84 73.29 73.45 73.87 70.87 71.42 70.59 66.73 71.83 72.09 72.61 72.39 68.01 66.97 65.74 66.60 67.81 68.21 69.45 70.09 70.14 71.95
67.04 66.19 66.50 67.24 68.06 69.70 70.34 70.63 71.36 72.62 71.90 72.25 71.70 71.10 71.67 71.85 71.67 71.52 71.89 75.59 75.53 75.45 74.75 74.50 75.48 73.06 72.78 70.04 68.51 71.17 70.73 70.47 71.10 71.34 68.64 64.68 62.79 61.89 66.77 67.13 68.50 69.44 69.84
68.94 67.16 66.86 67.06 67.94 69.12 71.52 71.34 72.08 72.63 71.73 71.84 71.03 71.01 70.96 69.87 70.82 71.59 71.12 73.68 74.03 74.33 75.41 76.89 75.69 75.29 72.68 68.14 69.27 67.23 66.35 70.81 70.16 71.27 72.83 70.72 66.58 61.03 60.74 66.64 66.40 67.81 68.26
69.19 67.75 67.48 67.80 68.91 70.13 71.86 71.62 72.41 72.93 71.99 71.35 72.36 71.38 70.57 70.81 70.94 72.45 70.80 71.59 73.81 74.39 75.08 75.23 78.05 77.04 73.75 71.64 71.25 71.33 70.21 73.26 72.34 71.63 69.68 69.15 67.16 67.07 65.85 63.00 65.41 68.19 69.26
69.33 68.79 68.96 68.65 68.92 70.97 71.69 72.28 72.21 73.23 72.85 72.28 72.34 73.01 71.34 71.62 71.08 70.10 70.68 73.10 74.26 74.49 74.58 75.83 76.54 76.76 73.21 71.30 69.19 67.02 65.10 70.36 72.84 72.69 72.26 70.03 68.66 67.54 66.34 66.73 66.22 67.33 70.17
68.42 68.87 68.19 68.17 68.40 70.24 71.18 72.66 72.08 72.50 73.60 73.64 72.80 73.14 73.37 73.85 70.08 70.81 71.89 70.76 70.85 71.84 72.52 74.70 76.54 76.84 73.63 70.32 70.65 70.05 69.16 69.46 73.23 72.87 73.12 72.79 71.68 66.41 64.98 68.62 67.04 67.40 70.20
61.82 68.10 68.56 68.85 68.69 69.18 71.41 72.34 72.47 72.01 73.87 74.53 73.89 73.98 72.85 73.58 75.17 72.07 73.47 71.25 70.05 71.04 73.59 75.48 76.46 73.23 72.69 70.83 68.60 70.52 71.74 71.49 73.84 73.52 73.57 73.76 71.71 71.00 69.70 66.09 65.19 65.01 67.49
65.29 65.11 69.18 69.28 69.27 69.41 70.06 71.67 73.04 72.73 73.44 73.72 74.90 74.96 74.82 73.63 73.14 74.80 73.53 73.54 71.58 74.15 74.08 74.29 68.16 67.33 71.23 73.27 67.91 69.86 72.76 73.69 74.01 73.48 73.59 73.16 69.00 66.61 67.13 67.25 66.66 65.71 64.20
65.29 65.47 66.29 69.50 69.82 70.04 70.54 70.93 73.39 73.02 73.68 74.44 74.09 74.59 75.88 75.73 74.86 73.51 73.42 73.13 71.81 73.64 73.80 71.92 70.54 70.61 70.42 69.98 73.39 67.50 65.42 69.57 74.12 74.16 72.65 72.83 70.94 67.11 66.67 66.66 65.56 66.14 65.24
64.53 65.67 66.23 66.99 70.03 70.34 70.32 70.23 72.38 73.09 73.45 73.93 74.97 74.75 74.42 76.36 75.60 75.18 74.73 74.95 72.73 73.95 72.19 72.83 72.20 69.95 68.60 67.52 72.90 71.51 70.48 72.20 72.32 72.70 71.79 71.46 71.03 71.65 70.45 70.20 71.80 70.38 70.06
65.58 66.88 67.64 70.14 67.64 68.85 69.79 69.97 69.99 72.80 73.37 74.15 73.94 74.11 75.02 74.99 71.17 69.57 70.35 73.29 74.07 73.84 74.63 72.40 69.91 67.54 65.72 71.41 72.12 72.60 73.11 72.60 71.35 71.82 72.33 70.72 71.75 70.28 72.06 71.42 70.78 70.46 69.30
68.35 67.58 70.04 70.74 70.87 70.42 70.12 70.42 71.45 71.31 73.06 72.64 71.41 70.03 69.27 67.74 69.75 70.58 70.76 71.24 70.47 71.71 72.66 72.87 72.45 71.84 72.33 72.17 72.46 72.26 71.72 71.37 71.19 71.24 70.65 70.97 71.27 70.34 70.75 70.78 70.29 69.28 69.71
68.93 69.66 69.26 69.88 70.37 70.89 69.21 69.18 68.67 69.77 69.83 68.80 68.20 67.16 65.97 65.01 68.03 68.98 69.74 69.25 69.09 69.25 69.09 70.44 68.19 66.93 66.10 68.82 69.07 68.41 67.94 68.29 68.60 69.42 68.94 67.02 65.95 66.72 68.62 68.44 65.74 66.26 65.13
63.33 68.13 70.30 70.28 70.66 69.30 68.30 69.19 68.50 68.12 68.15 67.20 65.88 64.31 63.89 64.47 66.35 68.37 67.63 66.39 67.45 68.48 69.18 68.24 68.80 67.47 66.44 66.19 65.01 66.51 67.05 66.49 66.33 67.20 66.88 66.81 67.89 68.47 65.07 63.00 63.92 64.38 62.52
60.79 66.07 69.62 69.45 71.58 70.45 68.55 69.28 68.33 68.44 67.14 65.88 64.97 64.67 64.54 65.15 66.07 66.68 67.42 66.19 67.76 67.72 68.01 67.83 67.33 66.81 66.49 63.31 62.78 62.42 62.34 63.32 63.56 63.25 64.86 65.55 66.11 66.47 66.25 66.15 65.79 63.70 61.74
65.94 67.00 67.34 67.22 70.26 69.74 69.83 68.73 68.14 67.60 66.78 65.51 64.64 64.04 63.61 63.89 66.23 66.63 66.39 66.05 66.75 67.27 67.99 68.26 67.58 64.39 61.40 60.55 60.65 61.72 59.93 62.51 63.74 63.34 63.06 64.76 66.36 64.98 63.64 64.53 64.74 64.02 64.03
66.26 66.61 66.88 67.48 69.48 71.42 69.67 69.15 68.15 67.06 66.26 65.24 64.79 64.70 64.38 64.27 64.95 65.73 65.96 65.43 65.86 65.82 66.44 65.77 65.77 64.18 59.73 58.69 58.12 59.98 59.54 60.73 60.41 61.92 61.38 61.54 62.86 62.40 60.70 61.82 62.26 61.10 60.95
60.00 61.27 67.20 67.66 69.95 70.11 69.37 68.51 67.57 67.03 66.79 66.38 64.90 64.89 64.37 65.13 65.67 65.35 65.44 65.39 65.54 64.83 64.42 64.68 63.82 63.32 57.26 57.11 57.00 57.82 57.80 58.31 58.57 60.32 59.64 60.39 60.04 58.58 58.71 59.53 59.40 59.23 59.44
65.06 67.49 67.71 68.60 69.08 69.33 68.43 67.37 67.40 67.46 65.86 65.52 65.97 67.73 68.01 66.19 65.72 64.69 63.73 63.74 63.97 63.76 62.84 63.67 63.71 62.04 57.15 56.45 55.87 57.14 56.96 56.95 56.63 56.52 57.13 59.19 56.61 56.88 56.30 54.98 55.39 54.78 55.37
67.97 68.04 68.21 67.70 68.52 68.74 68.63 66.26 64.86 64.00 64.09 64.24 64.47 64.48 64.52 64.02 64.18 63.56 62.69 62.58 62.62 62.47 62.37 62.43 62.65 63.67 61.72 57.13 55.79 56.32 57.66 56.36 55.84 56.75 57.29 55.99 56.47 54.02 54.35 54.43 53.19 53.81 55.47
61.55 66.86 66.06 67.38 68.29 68.67 65.60 63.78 63.42 65.07 64.23 63.19 63.05 62.86 62.75 63.26 63.43 61.65 61.13 60.57 60.63 59.59 59.79 60.42 60.77 61.91 63.16 57.88 55.89 56.46 56.60 57.47 57.05 56.17 54.88 53.37 52.32 51.15 51.03 51.87 52.81 53.36 55.10
58.36 54.77 52.56 67.07 65.01 65.39 64.93 63.67 63.89 63.91 63.85 62.80 61.92 60.93 60.85 60.29 60.08 59.55 58.23 58.62 60.14 57.65 54.46 56.98 58.78 58.96 61.07 58.38 55.95 56.47 56.03 56.34 55.96 53.02 53.64 53.29 51.51 50.80 51.07 52.36 52.93 53.82 53.18
56.61 57.20 53.59 63.50 63.57 64.61 64.93 63.99 64.43 64.54 63.26 61.97 60.81 59.59 58.85 58.49 57.89 59.61 58.89 53.90 52.01 50.34 50.93 52.74 53.04 56.83 56.39 55.59 55.37 54.94 54.72 55.49 54.19 52.08 50.20 52.77 53.57 53.62 54.00 53.42 54.72 56.79 55.61
57.21 60.71 63.71 63.61 63.47 64.08 63.84 64.42 63.19 63.05 60.62 59.37 58.64 58.94 55.22 58.98 57.76 56.54 55.12 53.97 52.41 51.55 50.06 50.69 51.33 53.74 53.41 52.85 51.50 50.78 51.21 49.71 48.27 49.05 49.30 49.82 50.18 51.32 53.26 53.83 54.41 54.49 53.02
61.00 63.35 63.18 62.48 62.47 62.87 61.93 61.42 60.82 59.09 58.35 57.34 55.49 52.74 56.71 56.64 55.73 55.78 52.76 53.58 52.88 50.84 49.46 47.96 51.05 51.62 50.71 48.31 47.93 47.53 44.68 45.43 44.39 48.23 47.75 48.70 50.53 51.95 51.47 51.24 51.11 51.52 52.32
MSLP
1004.38 1004.83 1005.34 1006.08 1006.90 1007.79 1008.55 1009.14 1009.89 1010.63 1011.33 1012.02 1012.51 1012.87 1013.08 1013.08 1012.89 1012.56 1012.44 1012.65 1012.92 1013.27 1013.76 1013.89 1014.10 1014.27 1014.68 1014.88 1015.31 1014.94 1015.03 1015.03 1015.88 1016.65 1017.03 1017.14 1017.25 1016.48 1016.11 1016.19 1016.59 1016.99 1016.52
1003.61 1004.16 1004.62 1005.33 1006.27 1007.31 1008.09 1008.79 1009.49 1010.24 1010.84 1011.35 1011.88 1012.17 1012.48 1012.45 1012.41 1012.22 1012.24 1012.34 1012.59 1012.86 1013.33 1013.67 1013.94 1014.16 1014.44 1014.62 1015.25 1014.72 1014.60 1014.63 1015.40 1016.04 1016.85 1017.28 1017.75 1017.97 1016.76 1017.08 1016.78 1015.86 1015.57
1002.32 1003.24 1003.99 1004.61 1005.52 1006.58 1007.50 1008.28 1008.98 1009.72 1010.33 1010.83 1011.45 1011.78 1012.01 1012.16 1012.19 1012.21 1012.21 1012.17 1012.27 1012.41 1012.67 1012.99 1013.45 1013.88 1014.42 1014.63 1014.63 1014.04 1014.38 1014.67 1014.79 1015.12 1015.72 1016.79 1017.28 1017.55 1017.17 1017.07 1015.57 1014.55 1015.10
1001.17 1002.19 1003.14 1003.98 1004.65 1005.54 1006.65 1007.48 1008.31 1009.10 1009.77 1010.29 1010.98 1011.55 1011.73 1011.97 1011.80 1011.82 1011.63 1011.67 1011.70 1011.97 1012.23 1012.51 1012.81 1013.47 1013.76 1014.33 1014.34 1013.71 1013.80 1014.10 1014.56 1014.69 1015.03 1015.34 1015.61 1016.67 1017.42 1016.49 1016.21 1016.45 1016.11
1000.08 1001.12 1002.05 1002.72 1003.69 1004.77 1005.69 1006.70 1007.61 1008.46 1009.10 1009.84 1010.28 1010.86 1011.26 1011.33 1011.18 1011.38 1011.36 1011.31 1011.58 1011.64 1011.83 1011.99 1012.47 1012.95 1013.35 1013.56 1013.88 1013.95 1013.81 1013.94 1013.92 1014.00 1014.75 1015.60 1016.40 1016.18 1016.84 1017.29 1016.82 1015.66 1014.80
999.47 1000.18 1000.84 1002.14 1003.10 1004.12 1005.07 1006.06 1007.00 1007.76 1008.39 1009.16 1009.75 1010.31 1010.58 1010.79 1011.01 1011.16 1011.30 1011.20 1011.22 1011.37 1011.60 1011.67 1012.17 1012.43 1012.81 1013.28 1013.69 1013.73 1013.95 1013.95 1013.64 1013.53 1014.01 1014.90 1015.48 1016.23 1016.86 1016.57 1015.92 1015.38 1014.89
998.98 999.88 1000.77 1001.68 1002.51 1003.29 1004.14 1005.23 1006.18 1006.99 1007.71 1008.30 1008.92 1009.51 1009.94 1010.35 1010.60 1010.85 1011.07 1011.21 1011.19 1011.15 1011.27 1011.54 1011.95 1012.31 1012.60 1012.95 1013.18 1013.04 1013.13 1013.45 1013.22 1013.11 1013.62 1014.08 1014.95 1015.16 1016.33 1016.73 1015.63 1015.76 1016.15
998.43 999.18 999.89 1000.58 1001.38 1002.29 1003.18 1004.17 1005.28 1006.14 1006.88 1007.52 1007.98 1008.59 1009.23 1009.84 1010.18 1010.45 1010.61 1010.71 1010.85 1010.77 1010.83 1011.05 1011.40 1012.35 1012.87 1012.43 1012.64 1012.90 1013.18 1013.21 1013.12 1013.16 1013.41 1013.68 1014.33 1014.50 1015.60 1015.75 1015.52 1015.97 1015.53
998.26 998.98 999.81 1000.11 1000.70 1001.49 1002.24 1003.06 1004.30 1005.33 1006.15 1006.71 1007.34 1007.86 1008.45 1009.06 1009.40 1009.73 1009.93 1010.05 1010.05 1010.34 1010.62 1010.76 1011.09 1011.20 1011.82 1012.63 1012.85 1013.04 1012.90 1012.95 1012.71 1012.62 1012.78 1013.28 1014.25 1014.22 1014.29 1014.43 1015.16 1015.46 1016.30
998.19 998.69 999.18 1000.01 1000.38 1000.78 1001.33 1002.25 1003.36 1004.57 1005.28 1005.92 1006.36 1006.86 1007.23 1007.87 1008.62 1009.23 1009.68 1009.64 1009.80 1010.10 1010.25 1010.41 1010.58 1010.67 1011.16 1012.37 1012.13 1012.12 1012.20 1012.27 1012.44 1012.45 1012.70 1012.87 1013.67 1014.05 1013.96 1014.56 1015.04 1015.32 1015.21
998.85 999.09 999.21 999.67 1000.21 1000.74 1001.01 1001.76 1002.96 1003.76 1004.56 1005.24 1005.77 1006.42 1006.76 1007.51 1008.38 1009.06 1009.67 1010.02 1009.84 1010.33 1010.37 1010.48 1010.63 1010.75 1011.19 1011.81 1012.11 1011.96 1012.52 1012.90 1012.39 1012.36 1012.54 1012.81 1012.86 1013.36 1013.55 1013.58 1013.31 1014.05 1015.19
999.34 999.42 999.96 1000.51 1000.06 1000.58 1001.13 1001.27 1001.55 1002.56 1003.69 1004.52 1005.68 1006.53 1007.54 1008.81 1010.09 1011.08 1011.05 1011.22 1010.85 1009.67 1010.18 1010.20 1010.78 1011.25 1011.30 1011.45 1011.83 1012.11 1012.22 1012.09 1012.10 1012.39 1012.58 1012.84 1012.88 1013.13 1013.42 1013.53 1013.23 1013.58 1013.79
1000.81 1001.00 1001.09 1001.61 1001.69 1001.92 1001.56 1002.55 1002.85 1002.84 1004.41 1005.22 1006.03 1007.15 1008.35 1009.11 1009.19 1010.12 1010.48 1010.45 1011.48 1010.44 1009.75 1010.10 1011.45 1011.71 1011.62 1011.60 1011.73 1012.01 1012.07 1012.12 1012.36 1012.52 1012.60 1012.52 1012.68 1012.93 1012.91 1012.99 1013.25 1013.57 1013.56
1003.69 1004.08 1003.93 1003.44 1003.11 1003.39 1003.77 1004.13 1004.50 1004.50 1004.96 1005.79 1006.56 1007.64 1008.65 1009.06 1010.22 1011.03 1011.25 1011.47 1010.53 1010.72 1008.93 1010.14 1011.53 1012.13 1012.10 1011.92 1012.31 1012.28 1012.25 1012.70 1012.77 1012.77 1012.54 1012.58 1012.76 1012.83 1012.91 1013.23 1013.49 1013.76 1014.06
1005.35 1005.79 1007.23 1006.75 1004.61 1004.80 1004.99 1005.48 1005.65 1005.74 1005.85 1006.32 1007.12 1007.83 1008.49 1009.89 1010.99 1010.84 1010.14 1010.47 1011.34 1010.92 1010.86 1011.80 1012.04 1012.25 1012.20 1012.19 1012.59 1013.00 1012.99 1013.31 1013.10 1012.83 1012.79 1012.75 1012.82 1012.93 1012.71 1013.23 1013.72 1014.12 1014.21
1007.30 1006.67 1008.20 1007.00 1005.74 1006.21 1006.17 1006.01 1006.59 1006.87 1006.91 1007.51 1008.18 1008.54 1008.43 1009.57 1009.46 1010.20 1010.63 1011.35 1011.53 1011.78 1012.16 1012.16 1011.95 1012.60 1012.67 1012.27 1012.04 1012.93 1013.49 1013.33 1013.22 1013.17 1013.24 1013.04 1013.13 1012.98 1012.80 1013.09 1013.45 1013.60 1013.97
1006.49 1006.68 1008.40 1007.29 1005.77 1007.01 1007.74 1007.16 1007.14 1007.33 1007.60 1007.90 1008.64 1008.87 1009.37 1008.93 1010.23 1010.75 1011.22 1011.67 1011.54 1011.62 1011.29 1011.32 1012.04 1012.99 1012.59 1012.34 1012.09 1012.75 1013.23 1013.20 1013.46 1013.42 1013.46 1013.22 1013.39 1013.29 1013.40 1013.58 1013.43 1013.54 1013.69
1005.87 1005.30 1005.03 1004.63 1005.85 1006.71 1007.60 1007.88 1007.81 1007.82 1008.15 1008.04 1008.64 1009.32 1009.22 1010.24 1010.54 1010.90 1011.57 1011.65 1011.72 1011.68 1011.58 1012.04 1012.41 1012.99 1012.76 1012.36 1012.46 1012.72 1013.09 1013.22 1013.36 1013.50 1013.28 1013.37 1013.65 1013.61 1013.36 1013.79 1013.80 1013.55 1013.39
1003.51 1002.80 1003.24 1003.54 1005.13 1006.98 1007.49 1007.54 1007.77 1007.77 1008.14 1008.72 1008.85 1009.20 1009.72 1010.10 1010.73 1011.02 1011.24 1011.43 1011.83 1012.06 1011.90 1012.00 1012.02 1012.22 1012.73 1012.59 1012.63 1013.16 1013.43 1013.54 1013.39 1013.18 1013.26 1013.63 1013.94 1013.92 1013.59 1013.78 1013.94 1013.90 1013.52
1004.58 1004.10 1004.49 1003.28 1005.50 1006.52 1007.68 1007.97 1007.34 1007.79 1008.72 1008.92 1009.05 1009.35 1009.90 1010.17 1010.73 1011.33 1011.64 1011.44 1011.56 1011.81 1011.82 1011.68 1011.78 1012.19 1012.71 1012.72 1013.18 1013.09 1013.13 1013.62 1013.88 1013.94 1014.23 1013.97 1014.24 1014.22 1014.11 1014.35 1014.37 1014.06 1013.40
1007.16 1005.22 1004.91 1004.04 1005.13 1006.11 1006.44 1007.36 1008.04 1008.30 1008.88 1009.34 1009.46 1009.90 1010.19 1010.69 1010.72 1011.21 1011.36 1011.36 1011.37 1011.64 1011.80 1012.05 1011.94 1012.02 1012.41 1012.93 1013.23 1013.39 1013.59 1014.07 1014.23 1014.39 1014.66 1014.55 1014.35 1014.37 1014.08 1013.87 1013.75 1013.29 1012.74
1010.58 1007.53 1007.49 1006.06 1005.94 1006.19 1006.67 1007.29 1007.81 1008.21 1008.57 1009.91 1010.08 1010.18 1010.35 1010.73 1011.25 1011.31 1011.41 1011.59 1011.60 1011.66 1011.75 1011.71 1011.89 1011.96 1012.30 1012.91 1013.45 1013.69 1013.98 1014.33 1014.62 1014.93 1014.87 1014.47 1014.20 1013.95 1013.46 1013.10 1012.64 1012.54 1012.35
1008.99 1010.55 1013.24 1007.89 1007.22 1006.95 1006.98 1007.55 1007.55 1007.65 1008.53 1009.74 1010.29 1010.51 1010.70 1011.28 1011.46 1011.50 1011.80 1011.87 1012.20 1012.35 1012.42 1012.40 1012.56 1012.46 1012.84 1013.26 1013.68 1014.14 1014.40 1014.58 1014.78 1014.80 1014.64 1014.21 1013.82 1013.47 1012.86 1012.26 1012.22 1011.91 1011.90
1008.12 1008.68 1008.82 1005.01 1007.37 1007.40 1007.29 1007.25 1006.93 1007.75 1008.52 1009.31 1009.91 1010.85 1010.82 1011.43 1011.57 1011.74 1012.31 1012.35 1012.54 1012.66 1012.78 1013.12 1013.62 1013.79 1013.87 1014.34 1014.52 1014.51 1014.54 1014.55 1014.74 1014.54 1014.14 1013.86 1013.54 1013.10 1012.66 1012.27 1012.03 1012.00 1011.90
1006.89 1005.06 1005.93 1005.92 1007.13 1007.47 1007.28 1007.20 1007.37 1008.43 1009.22 1009.62 1009.88 1010.94 1011.39 1011.32 1011.60 1011.76 1012.09 1012.41 1012.63 1012.76 1012.93 1013.36 1013.87 1014.52 1014.67 1014.60 1014.55 1014.62 1014.80 1015.17 1015.07 1014.60 1014.28 1014.02 1013.79 1013.60 1013.29 1012.97 1012.77 1012.46 1012.39
1005.31 1005.35 1005.99 1004.37 1006.35 1007.94 1007.40 1007.43 1008.13 1008.73 1009.08 1009.90 1010.31 1010.77 1011.45 1011.74 1011.82 1011.79 1012.39 1012.39 1012.58 1012.83 1013.19 1013.65 1013.95 1014.42 1014.40 1014.49 1014.63 1014.73 1014.84 1014.95 1014.80 1014.73 1014.70 1014.45 1014.25 1013.93 1013.41 1013.24 1013.19 1013.32 1012.89
Wind_Speed
14 15 13 13 11 14 12 10 10 14 11 7 7 3 5 4 4 4 3 7 6 6 6 3 3 4 5 5 4 0 3 3 5 4 4 3 3 6 3 2 5 7 3
17 17 16 16 14 15 15 11 10 12 11 9 6 4 4 4 4 4 4 7 8 8 6 6 5 3 3 3 3 4 2 3 4 3 3 2 1 2 6 7 9 7 2
21 19 19 17 15 17 17 14 11 11 9 9 6 3 3 3 2 3 3 6 7 8 7 6 5 5 5 3 5 5 4 1 1 4 5 2 4 1 2 9 5 3 3
20 20 20 18 19 19 18 17 14 13 9 9 7 7 7 6 4 4 4 5 8 7 7 7 7 7 5 5 6 3 3 0 3 1 3 0 6 4 2 4 3 1 7
22 23 23 22 19 20 19 18 16 14 12 10 8 8 7 5 4 3 5 5 6 7 7 7 7 6 6 6 7 2 4 3 2 3 3 3 1 1 4 4 3 5 7
21 23 23 20 17 18 19 18 18 16 15 13 12 10 9 9 4 4 3 4 4 7 7 6 6 7 6 7 5 6 5 6 4 3 2 4 3 2 2 2 2 3 5
17 19 20 20 18 21 22 19 20 17 17 16 15 14 12 7 8 7 4 4 3 3 6 6 5 4 7 7 7 6 4 5 5 3 3 1 5 4 6 6 2 2 3
2 17 22 22 22 20 22 22 21 19 18 17 17 14 13 7 5 5 4 4 4 4 5 8 6 2 3 5 5 3 4 5 6 6 5 2 4 8 14 6 5 1 1
7 6 17 20 21 21 21 24 23 20 19 19 13 14 13 12 9 7 6 5 5 4 5 7 7 4 5 3 4 3 4 4 7 6 5 3 5 4 3 4 1 5 1
7 4 8 17 18 19 19 20 21 21 20 19 16 14 13 14 12 7 7 7 6 6 8 8 7 6 3 3 7 5 5 3 7 3 3 3 6 4 3 2 5 1 1
7 6 4 7 17 16 17 18 17 21 19 18 16 14 14 9 9 6 2 5 6 6 6 8 7 6 6 6 6 5 5 6 5 2 1 3 4 5 5 3 3 2 6
5 6 9 10 2 15 16 17 20 21 18 16 11 6 4 7 14 11 14 17 12 8 12 6 4 4 5 6 3 2 3 2 3 2 4 4 3 4 1 2 6 4 2
9 8 12 11 12 11 13 13 8 9 10 11 11 11 13 13 13 2 8 6 11 16 7 8 5 4 1 5 6 6 5 6 5 3 3 2 4 3 2 2 3 2 1
20 13 10 9 10 10 13 12 11 12 14 14 12 13 11 10 12 5 7 2 5 12 13 11 11 11 10 12 11 8 9 7 4 5 5 6 6 5 3 4 4 4 2
15 20 13 10 7 10 11 11 10 9 10 13 12 7 8 9 9 8 11 9 6 4 7 6 6 6 7 6 6 7 4 3 5 4 3 3 5 7 3 3 2 2 2
6 12 14 8 10 7 9 11 10 9 11 11 9 5 7 6 11 8 8 4 6 5 4 4 3 1 2 10 13 3 3 5 6 5 6 5 8 8 8 5 6 4 1
14 13 10 4 6 6 4 9 11 11 11 11 7 6 5 10 10 6 6 5 5 4 5 5 4 4 4 8 12 8 3 4 4 5 4 5 4 6 6 7 6 6 6
17 13 11 7 4 4 6 11 10 10 9 8 7 5 7 6 5 7 5 3 2 2 5 5 5 6 4 10 10 8 4 4 4 4 4 4 5 4 5 4 3 2 3
13 10 11 9 9 6 8 12 10 10 9 7 6 6 5 7 6 6 5 4 4 3 3 4 4 7 5 9 9 6 4 5 5 5 6 4 5 9 10 6 6 5 5
11 3 4 11 8 10 8 8 7 11 9 7 6 6 6 6 7 6 4 3 4 3 3 3 5 8 6 7 7 6 4 6 5 6 6 11 7 8 7 4 4 6 7
8 4 8 10 9 11 10 10 10 12 8 7 8 7 7 6 6 5 3 5 5 5 4 3 3 4 7 5 7 8 5 3 3 4 4 1 5 4 7 7 5 7 6
27 4 3 6 6 9 13 13 12 11 11 7 7 7 6 5 4 5 3 3 3 3 3 3 4 0 5 9 6 7 4 4 3 3 3 4 10 13 13 8 10 12 9
9 20 32 11 5 10 12 14 13 13 11 8 7 7 7 5 3 4 2 2 4 5 5 5 5 5 6 5 7 3 2 3 1 1 5 9 11 13 9 10 11 8 1
13 18 24 15 12 9 9 11 12 12 11 10 9 6 6 4 3 3 3 5 4 3 4 5 5 6 6 5 3 2 2 6 3 6 6 7 9 11 10 7 5 3 4
11 8 17 12 12 9 10 10 9 9 8 7 6 6 3 5 3 4 4 4 2 3 2 2 4 5 3 1 2 2 2 3 2 5 4 5 5 5 4 5 6 5 5
14 11 6 12 13 9 10 10 9 8 7 6 5 6 4 4 4 4 3 4 6 5 8 10 6 2 3 6 4 4 6 5 7 2 2 3 3 1 3 3 3 3 4
Wind_Direction
186 173 173 172 155 159 162 159 153 167 164 167 180 183 211 235 255 244 225 175 175 177 177 177 175 152 142 186 293 21 316 359 140 91 56 346 134 130 6 322 294 254 4
182 178 178 170 161 162 169 163 158 157 170 172 179 175 190 220 216 232 195 187 173 180 176 169 175 195 173 214 183 215 200 221 135 126 85 171 106 285 163 214 224 217 205
183 178 180 175 164 164 171 171 164 160 167 160 172 200 214 257 224 235 203 203 182 181 188 181 204 177 183 203 232 232 136 261 121 168 142 114 219 177 244 232 264 315 344
184 177 177 177 174 173 169 170 167 166 172 173 169 188 214 214 211 207 207 191 195 192 191 193 199 186 186 174 220 242 185 337 213 165 98 132 155 153 325 314 304 212 261
181 177 181 182 176 168 169 172 172 171 177 187 178 199 212 210 219 229 217 209 204 199 202 205 199 204 159 190 203 285 272 233 225 181 148 139 205 131 119 238 292 229 222
180 179 183 175 175 168 170 172 175 179 180 187 201 205 204 216 213 230 244 239 178 199 214 207 206 205 144 161 187 212 234 279 268 278 185 159 176 97 294 219 251 248 340
180 178 173 178 179 173 175 174 179 184 184 187 200 209 218 213 219 226 218 217 205 206 215 209 212 206 143 189 180 214 242 250 255 247 282 149 100 136 309 293 303 211 177
140 175 180 180 183 182 176 178 182 187 185 189 199 205 214 213 212 209 213 219 213 203 224 218 161 108 138 204 174 186 218 234 258 238 233 256 93 147 199 207 151 259 175
85 87 182 183 184 186 181 183 181 187 190 195 193 199 206 213 212 219 206 211 213 159 125 125 114 172 152 220 220 209 245 277 257 257 239 213 128 152 194 208 108 121 315
132 219 120 189 191 190 186 184 180 182 190 194 198 201 188 199 210 208 228 226 225 139 145 144 157 233 189 227 208 211 256 321 265 238 270 243 130 139 136 60 119 119 199
178 155 167 148 197 196 188 187 170 183 191 194 194 198 205 186 188 207 289 266 233 156 175 175 198 207 190 224 215 198 251 237 262 283 147 123 136 141 161 149 95 43 236
85 105 63 29 343 189 198 192 182 185 188 186 182 171 98 70 57 36 24 344 295 205 171 181 214 234 202 222 166 24 342 339 2 329 129 169 135 118 191 180 160 139 263
50 37 56 49 42 67 66 69 47 137 113 99 107 84 92 91 80 169 274 10 354 334 61 120 142 204 171 103 83 81 57 59 85 103 105 179 173 171 162 136 102 108 66
16 24 31 61 59 53 77 77 71 86 105 106 103 106 110 110 109 109 118 196 234 358 20 45 68 63 50 42 36 49 48 21 26 36 32 55 60 58 34 103 103 97 78
38 7 358 340 42 74 80 80 68 75 102 107 107 118 120 101 128 130 82 83 10 83 13 20 65 84 84 74 45 1 59 300 326 6 52 39 352 308 185 149 145 179 163
355 0 345 324 23 17 96 105 99 93 92 87 89 67 71 90 81 78 102 158 134 150 180 137 66 55 86 117 102 113 12 4 10 18 4 17 42 17 32 86 115 130 136
151 197 237 273 42 62 78 109 112 111 104 105 100 85 83 76 96 108 121 168 181 198 134 116 153 165 116 85 79 64 28 20 4 31 11 11 40 56 39 29 39 4 12
180 187 186 146 116 131 132 119 119 114 108 111 116 114 94 98 108 122 142 139 177 194 98 112 135 156 121 85 72 45 42 14 348 331 357 19 340 41 57 353 325 19 14
198 198 160 124 131 132 149 140 141 129 128 123 118 120 139 130 130 124 133 132 105 95 93 103 81 92 104 99 80 71 47 32 10 17 17 338 37 22 33 21 350 334 313
223 191 103 108 132 151 162 156 135 116 101 108 103 104 104 108 111 118 127 131 123 125 93 68 95 114 127 134 102 76 61 43 24 358 63 77 67 16 1 352 306 283 276
333 152 160 146 152 168 150 131 116 116 121 100 98 97 91 89 92 91 69 67 66 57 45 38 52 101 136 133 108 77 68 64 31 11 36 309 340 309 267 259 258 259 273
348 293 291 166 183 161 128 125 126 119 105 98 93 94 102 97 102 101 72 47 64 55 4 347 330 124 164 125 120 92 75 39 42 24 339 321 326 321 313 307 265 271 283
82 330 315 207 209 129 135 130 132 121 122 112 99 89 94 97 96 106 85 29 39 38 29 28 16 11 64 87 106 65 310 301 138 317 313 308 306 302 302 287 304 307 264
161 225 252 134 141 135 139 128 122 117 116 121 123 126 120 126 109 66 95 100 98 67 63 58 61 68 58 71 81 59 38 37 51 344 319 310 305 293 280 309 320 11 37
267 345 156 170 141 138 110 97 85 99 117 121 119 130 168 146 123 118 125 119 107 128 99 81 92 109 106 225 179 158 354 22 355 324 339 340 342 331 356 24 17 23 29
308 146 131 107 104 109 94 110 120 119 107 119 132 134 145 131 146 121 97 47 160 152 95 82 97 77 118 166 208 305 357 25 25 358 311 308 293 327 23 17 18 2 50